User: anonymous
Location: Albany
(35.0000°S, 118.0000°E)
Time: 01:55:57
(UTC-04:00)
Language:

ADEOS Rocket - Orbit

View from above orbital plane
View from above orbital plane
View from above satellite
View from above satellite

Ground track
Ground track

The orbit data is extracted from the following two-line orbital elements,

1 24279U 96046C   14262.17812027  .00000045  00000-0  10381-3 0  7175
2 24279 098.7378 318.0654 0299409 325.4475 092.6091 13.46989949889349
Epoch (UTC): 19 September 2014 04:16:29
Eccentricity: 0.0299409
inclination: 98.7378°
perigee height: 860 km
apogee height: 1307 km
right ascension of ascending node: 318.0654°
argument of perigee: 325.4475°
revolutions per day: 13.46989949
mean anomaly at epoch: 92.6091°
orbit number at epoch: 88934

The dashed part of the orbit path shows where the satellite is in the earth's shadow,  

DLR